Location: Brunembert
(50.7122°N, 1.8935°E)
Time: 05:06:04
(UTC+00:00)

Cosmos 2180 Rocket - Pass Details

Date: 22 April 2021
Orbit: 953 x 1005 km, 82.9° (Epoch: 06 May)

Event Time Altitude Azimuth Distance (km) Brightness Sun altitude
Rises 20:21:49 0° 186° (S) 3,635 7.2 -12.2°
Reaches altitude 10° 20:24:19 10° 186° (S) 2,688 6.5 -12.5°
Maximum altitude 20:30:28 88° 99° (E) 964 4.4 -13.3°
Drops below altitude 10° 20:36:38 10° 10° (N) 2,693 7.2 -14.0°
Sets 20:39:08 0° 11° (N) 3,644 7.9 -14.3°
